This demonstration page uses our WeatherBlox Daily Observations layout. Learn more.

Left ArrowRight Arrow

38.20091, -84.87328

Hourly Observations for August 26, 2021

Temp ( °F °C ) Dew Point ( °F °C ) Humidity (%) Winds ( mph kmh ) Pressure ( in mb ) Visibility ( mi km ) Precip ( " mm )
12:53 am 00:53 Clear 72 22.2 70 21.1 94 94 Calm 30.12 1020 10 16 0.00 0.00
1:53 am 01:53 Clear 71 21.7 69 20.6 94 94 Calm 30.11 1020 9 14 0.00 0.00
2:53 am 02:53 Clear with Mist and Fog 70 21.1 69 20.6 97 97 Calm 30.11 1020 6 10 0.00 0.00
3:53 am 03:53 Clear 71 21.7 69 20.6 94 94 Calm 30.12 1020 9 14 0.00 0.00
4:53 am 04:53 Clear 70 21.1 68 20 93 93 NNW 3 6 30.12 1020 8 13 0.00 0.00
5:53 am 05:53 Clear 70 21.1 68 20 93 93 Calm 30.12 1020 8 13 0.00 0.00
6:53 am 06:53 Clear 69 20.6 68 20 96 96 Calm 30.13 1020 10 16 0.00 0.00
7:53 am 07:53 Sunny with Mist and Fog 72 22.2 71 21.7 97 97 E 3 6 30.14 1021 6 10 0.00 0.00
8:53 am 08:53 Sunny 75 23.9 72 22.2 90 90 Calm 30.15 1021 10 16 0.00 0.00
9:53 am 09:53 Sunny 81 27.2 72 22.2 74 74 Calm 30.15 1021 10 16 0.00 0.00
10:53 am 10:53 Sunny 85 29.4 72 22.2 65 65 VRB 3 6 30.15 1021 10 16 0.00 0.00
11:53 am 11:53 Sunny 88 31.1 72 22.2 59 59 undefined N/A 30.14 1021 10 16 0.00 0.00
12:53 pm 12:53 Sunny 89 31.7 72 22.2 57 57 VRB 5 7 30.13 1020 10 16 0.00 0.00
1:53 pm 13:53 Sunny 90 32.2 72 22.2 56 56 SSE 7 11 30.12 1020 10 16 0.00 0.00
2:53 pm 14:53 Sunny 92 33.3 70 21.1 49 49 NNW 3 6 30.10 1019 10 16 0.00 0.00
3:53 pm 15:53 Mostly Sunny 91 32.8 71 21.7 52 52 VRB 3 6 30.07 1018 10 16 0.00 0.00
4:53 pm 16:53 Mostly Cloudy 93 33.9 71 21.7 49 49 Calm 30.05 1018 10 16 0.00 0.00
5:53 pm 17:53 Mostly Cloudy 92 33.3 71 21.7 51 51 NNE 5 7 30.05 1018 10 16 0.00 0.00
6:53 pm 18:53 Sunny 91 32.8 71 21.7 52 52 N 3 6 30.05 1018 10 16 0.00 0.00
7:53 pm 19:53 Partly Cloudy 86 30 73 22.8 65 65 NNE 9 15 30.08 1019 10 16 0.00 0.00
8:53 pm 20:53 Clear 81 27.2 70 21.1 69 69 NE 9 15 30.09 1019 10 16 0.00 0.00
9:53 pm 21:53 Clear 78 25.6 69 20.6 74 74 E 5 7 30.11 1020 10 16 0.00 0.00
10:53 pm 22:53 Clear 77 25 69 20.6 77 77 Calm 30.10 1019 10 16 0.00 0.00
11:53 pm 23:53 Clear 76 24.4 70 21.1 82 82 NNE 3 6 30.10 1019 10 16 0.00 0.00

Powered by AerisWeather